Flag for United Kingdom Weather past 2 weeks in Birmingham, England, United Kingdom

Now
63 °F

Passing clouds.


Feels Like: 63 °F
Forecast: 54 / 76 °F
Wind: 8 mph from Northwest

Location: Birmingham / Airport

Current Time: Jul 2, 2015 at 7:56:13 PM

Latest Report: Jul 2, 2015 at 7:20 PM


Visibility: N/A

Pressure: 30.15 "Hg

Humidity: 77%

Dew point: 55 °F

Location of BirminghamLocation

Historic Weather in Birmingham — Graph

°F

Birmingham temperature yesterday

Maximum temperature yesterday: 90 °F (at 3:50 PM)
Minimum temperature yesterday: 63 °F (at 4:50 AM)
Average temperature yesterday: 77 °F

Past Weeks' High & Low Weather Summary

 TemperatureHumidityPressure
High90 °F (Jul 1, 3:50 PM)100% (Jun 20, 7:20 AM)30.21 "Hg (Jun 20, 7:20 AM)
Low50 °F (Jun 18, 5:20 AM)35% (Jun 30, 2:50 PM)29.80 "Hg (Jun 22, 9:50 AM)
Average63 °F68%30.05 "Hg
* Reported Jun 17 6:20 PM — Jul 2 6:50 PM, Birmingham, Weather by CustomWeather, © 2015

Note: Actual official high and low records may vary slightly from our data, if they occured in-between our weather recording intervals... More about our weather records

Advertising

Birmingham weather history for previous 24 hours

 ConditionsComfort  
Time TempWeatherWind HumidityBarometerVisibility
6:50 PM
Thu, Jul 2
61 °FPartly sunny.9 mph83%30.12 "HgN/A
6:20 PM59 °FBroken clouds.8 mph88%30.12 "HgN/A
5:50 PM61 °FRain showers. Mostly cloudy.8 mph77%30.12 "Hg2 mi
5:20 PM61 °FSprinkles. Broken clouds.12 mph83%30.12 "HgN/A
4:50 PM63 °FLight rain. Broken clouds.18 mph88%30.09 "Hg4 mi
4:20 PM68 °FLight rain. Partly sunny.6 mph83%30.07 "Hg4 mi
3:50 PM70 °FPartly sunny.6 mph73%30.07 "HgN/A
3:20 PM72 °FBroken clouds.5 mph65%30.07 "HgN/A
2:50 PM70 °FPartly sunny.6 mph69%30.07 "HgN/A
2:20 PM70 °FPartly sunny.3 mph69%30.04 "HgN/A
1:50 PM70 °FScattered clouds.6 mph69%30.04 "HgN/A
1:20 PM68 °FSprinkles. Scattered clouds.6 mph78%30.07 "HgN/A
12:50 PM68 °FScattered clouds.8 mph73%30.09 "HgN/A
12:20 PM66 °FPassing clouds.6 mph78%30.07 "HgN/A
11:50 AM66 °FPassing clouds.5 mph78%30.07 "HgN/A
11:20 AM66 °FPassing clouds.6 mph78%30.07 "HgN/A
10:50 AM66 °FSprinkles. Scattered clouds.6 mph78%30.07 "HgN/A
10:20 AM66 °FPartly sunny.8 mph78%30.07 "HgN/A
9:50 AM66 °FScattered clouds.6 mph78%30.04 "HgN/A
9:20 AM66 °FScattered clouds.6 mph78%30.04 "HgN/A
8:50 AM66 °FScattered clouds.7 mph73%30.01 "HgN/A
8:20 AM66 °FScattered clouds.6 mph73%30.01 "HgN/A
7:50 AM66 °FPassing clouds.8 mph73%30.01 "HgN/A
7:20 AM64 °FScattered clouds.10 mph78%30.01 "HgN/A
6:50 AM63 °FPassing clouds.6 mph83%30.01 "HgN/A
6:20 AM61 °FPassing clouds.6 mph88%30.01 "HgN/A
5:50 AM61 °FSunny.7 mph83%30.01 "Hg10 mi
5:20 AM61 °FPassing clouds.8 mph83%29.98 "HgN/A
4:50 AM61 °FPassing clouds.5 mph83%29.98 "HgN/A
4:20 AM61 °FPassing clouds.5 mph88%29.95 "HgN/A
3:50 AM63 °FPassing clouds.6 mph88%29.95 "HgN/A
3:20 AM63 °FClear.7 mph94%29.95 "Hg5 mi
2:50 AM64 °FClear.5 mph88%29.95 "Hg4 mi
2:20 AM64 °FClear.3 mph88%29.92 "Hg5 mi
1:50 AM66 °FClear.7 mph88%29.92 "Hg6 mi
1:20 AM68 °FPassing clouds.7 mph83%29.92 "HgN/A
12:50 AM70 °FPassing clouds.7 mph78%29.92 "HgN/A
12:20 AM72 °FPassing clouds.7 mph73%29.89 "HgN/A
11:50 PM
Wed, Jul 1
73 °FPassing clouds.7 mph74%29.89 "HgN/A
11:20 PM75 °FClear.8 mph69%29.86 "Hg10 mi
10:50 PM77 °FPassing clouds.7 mph69%29.86 "HgN/A
10:20 PM77 °FSunny.6 mph69%29.86 "Hg10 mi
9:50 PM79 °FPassing clouds.6 mph61%29.83 "HgN/A
9:20 PM81 °FPassing clouds.8 mph62%29.83 "HgN/A
8:50 PM82 °FPassing clouds.12 mph58%29.83 "HgN/A
8:20 PM86 °FPassing clouds.9 mph52%29.80 "HgN/A
7:50 PM86 °FSunny.7 mph49%29.80 "Hg10 mi
7:20 PM88 °FSunny.6 mph46%29.80 "Hg10 mi
Weather by CustomWeather, © 2015

See weather overviewHow to use our weather pages